Location: Kiltepe
(36.4752°N, 30.0120°E)
Time: 10:31:40
(UTC+00:00)

Cosmos 2100 Rocket - Pass Details

Date: 03 August 2024
Orbit: 955 x 1000 km, 82.9° (Epoch: 14 September)

Event Time Altitude Azimuth Distance (km) Brightness Sun altitude
Exits shadow 20:23:16 60° 44° (NE) 1,113 4.2 -31.1°
Drops below altitude 10° 20:28:31 10° 12° (NNE) 2,743 6.9 -31.6°
Sets 20:31:04 0° 10° (N) 3,701 7.7 -31.8°
